Weather in Khayyrakan

Russia / Tyva Republic     51°33′50″N   93°08′04″E
temp.,
°C
wind,
m/s
gust,
m/s
humid.,
%
clouds,
%
prec.,
mm/h
press.,
hPa
HPBL,
m
3 march, wed
wed301:00−12e1195100 0.0 101721
04:00−11ne0197100 0.3 101621
07:00−11sw1295100 0.6 101721
10:00−10n1194100 0.1 101662
13:00−7wnw1190100 0.1 1015211
16:00−6nnw1190100 0.0 1016217
19:00−10s119399 0.0 101821
22:00−11sw128962 0.0 102221
4 march, thu
thu401:00−11sw119558 0.1 102421
04:00−11ene0193100 0.0 102621
07:00−12ene1192100 0.1 102921
10:00−10ne2292100 0.3 1029141
13:00−8ne3390100 0.4 1029275
16:00−8ene238885 0.1 1028264
19:00−12e228875 0.1 103021
22:00−14ese128312 0.0 103121
5 march, fri
fri501:00−16e11827 0.0 103120
04:00−17e128430 0.0 103120
07:00−19n009132 0.0 103120
10:00−15nnw119175 0.0 102992
13:00−12ne349388 0.0 1026278
16:00−11w228998 0.1 1025253
19:00−13n119799 0.3 102922
22:00−16nnw119894 0.0 103120
6 march, sat
sat601:00−17ene119782 0.1 103320
04:00−18ene019767 0.0 103320
07:00−19w009773 0.0 103420
10:00−15wnw119699 0.0 103297
13:00−12n119399 0.0 1030182
16:00−10ne1290100 0.0 1027190
19:00−14ene1195100 0.0 102820
22:00−16w119728 0.0 102820
7 march, sun
sun701:00−17w119762 0.0 102720
04:00−18w019799 0.0 102720
07:00−18wsw009799 0.0 102820
10:00−14n119584 0.0 102778
13:00−11nne229092 0.0 1026217
16:00−9nne118998 0.0 1025187
19:00−14ne009599 0.0 102621
22:00−16wnw009625 0.0 102820